Cavalier, ND

11:26 PM CST on February 23, 2017 (GMT -0600)
Cavalier

Weather History for K2C8 - January, 2013

Change the Weather History Date:

Saturday, January 12, 2013

  Actual Average (KGAF) Record (KGAF)
Temperature  
Mean Temperature -3 °F -  
Max Temperature 5 °F 12 °F 41 °F (1986)
Min Temperature -13 °F -5 °F -30 °F (1974)
Degree Days  
Heating Degree Days 68    
Moisture  
Dew Point -7 °F    
Average Humidity 76    
Maximum Humidity 92    
Minimum Humidity 66    
Precipitation  
Precipitation 3.14 in - - ()
Sea Level Pressure  
Sea Level Pressure 29.96 in    
Wind  
Wind Speed 19 mph (NW)    
Max Wind Speed 26 mph    
Max Gust Speed 40 mph    
Visibility 3 miles    
Events Rain , Snow    
Averages and records for this station are not official NWS values.
T = Trace of Precipitation, MM = Missing Value Source: NWS Daily Summary

Daily Weather History Graph

Daily Weather History Graph

Search for Another Location

Airport or City:

Trip Planner

Search our weather history database for the weather conditions in past years. The results will help you decide how hot, cold, wet, or windy it might be!

Date:

Astronomy

Jan. 12, 2013 Rise Set
Actual Time 8:20 AM CST 4:58 PM CST
Civil Twilight 7:44 AM CST 5:34 PM CST
Nautical Twilight 7:04 AM CST 6:13 PM CST
Astronomical Twilight 6:26 AM CST 6:51 PM CST
Moon 8:31 AM CST (1/12) 6:39 PM CST (1/12)
Length of Visible Light 9h 50m
Length of Day
8h 38m
New Moon, 1% of the Moon is Illuminated
Jan 12
New Moon
Jan 18
First Quarter
Jan 26
Full
Feb 3
Last Quarter
Feb 10
New

Hourly Weather History & Observations

Time (CST) Temp. Windchill Dew Point Humidity Pressure Visibility Wind Dir Wind Speed Gust Speed Precip Events Conditions
12:15 AM 5.0 °F -15.7 °F -0.4 °F 78% 29.65 in 0.2 mi NNW 20.7 mph 36.8 mph 0.02 in Snow Heavy Snow
12:35 AM 5.0 °F -16.7 °F -0.4 °F 78% 29.64 in 0.2 mi NNW 23.0 mph 40.3 mph 0.05 in Snow Heavy Snow
12:55 AM 3.2 °F -19.0 °F -0.4 °F 85% 29.65 in 0.2 mi NNW 23.0 mph 40.3 mph 0.18 in Rain Light Freezing Rain
1:15 AM 3.2 °F -19.0 °F -0.4 °F 85% 29.66 in 0.2 mi NNW 23.0 mph 32.2 mph 0.09 in Rain Light Freezing Rain
1:35 AM 3.2 °F - -0.4 °F 85% 29.67 in 0.2 mi North - - 0.20 in Rain Light Freezing Rain
2:15 AM 1.4 °F - -2.2 °F 85% 29.69 in 0.2 mi North - - 0.16 in Rain Light Freezing Rain
2:35 AM 1.4 °F -19.9 °F -2.2 °F 85% 29.70 in 0.2 mi NNW 19.6 mph 27.6 mph 0.41 in Rain Light Freezing Rain
2:55 AM 1.4 °F - -2.2 °F 85% 29.71 in 0.2 mi North - - 0.61 in Rain Light Freezing Rain
3:15 AM 1.4 °F - -2.2 °F 85% 29.72 in 0.2 mi North - - 0.12 in Rain Light Freezing Rain
3:35 AM 1.4 °F - -2.2 °F 85% 29.73 in 0.2 mi North - - 0.33 in Rain Light Freezing Rain
3:55 AM -0.4 °F -22.3 °F -2.2 °F 92% 29.74 in 0.2 mi NNW 19.6 mph 27.6 mph 0.51 in Rain Light Freezing Rain
4:15 AM -0.4 °F - -2.2 °F 92% 29.74 in 0.2 mi North - - 0.08 in Rain Light Freezing Rain
4:35 AM -0.4 °F -23.3 °F -4.0 °F 85% 29.75 in 0.2 mi NNW 21.9 mph 35.7 mph 0.23 in Rain Light Freezing Rain
4:55 AM -0.4 °F - -4.0 °F 85% 29.76 in 0.2 mi North - - 0.36 in Rain Light Freezing Rain
5:15 AM -0.4 °F -25.2 °F -4.0 °F 85% 29.78 in 0.2 mi NNW 26.5 mph 34.5 mph 0.09 in Rain Light Freezing Rain
5:35 AM -0.4 °F - -4.0 °F 85% 29.79 in 0.2 mi North - - 0.23 in Rain Light Freezing Rain
5:55 AM -0.4 °F -22.8 °F -4.0 °F 85% 29.80 in 0.2 mi NNW 20.7 mph 33.4 mph 0.41 in Rain Light Freezing Rain
6:15 AM -0.4 °F -23.3 °F -4.0 °F 85% 29.82 in 0.2 mi NNW 21.9 mph 29.9 mph 0.09 in Rain Light Freezing Rain
6:35 AM -0.4 °F -23.3 °F -5.8 °F 78% 29.83 in 0.2 mi NNW 21.9 mph 31.1 mph 0.19 in Rain Light Freezing Rain
6:55 AM -0.4 °F -25.2 °F -5.8 °F 78% 29.85 in 0.2 mi NNW 26.5 mph 36.8 mph 0.29 in Rain Light Freezing Rain
7:15 AM -0.4 °F - -5.8 °F 78% 29.86 in 0.2 mi North - - 0.05 in Rain Light Freezing Rain
7:35 AM -0.4 °F -23.8 °F -5.8 °F 78% 29.87 in 0.5 mi NNW 23.0 mph 35.7 mph 0.10 in Rain Light Freezing Rain
7:55 AM -0.4 °F -23.8 °F -5.8 °F 78% 29.88 in 0.2 mi NNW 23.0 mph 36.8 mph 0.13 in Rain Light Freezing Rain
8:15 AM -0.4 °F -25.2 °F -5.8 °F 78% 29.89 in 0.2 mi NNW 26.5 mph 34.5 mph 0.03 in Rain Light Freezing Rain
8:35 AM -0.4 °F -24.3 °F -5.8 °F 78% 29.90 in 0.2 mi NNW 24.2 mph 35.7 mph 0.09 in Rain Light Freezing Rain
8:55 AM -0.4 °F - -7.6 °F 72% 29.91 in 0.2 mi North - - 0.15 in Rain Light Freezing Rain
9:15 AM -0.4 °F - -7.6 °F 72% 29.92 in 0.2 mi North - - 0.04 in Rain Light Freezing Rain
9:35 AM -0.4 °F - -7.6 °F 72% 29.93 in 0.2 mi North - - 0.09 in Rain Light Freezing Rain
9:55 AM -2.2 °F - -7.6 °F 78% 29.94 in 0.2 mi North - - 0.14 in Rain Light Freezing Rain
10:15 AM -2.2 °F - -7.6 °F 78% 29.94 in 0.2 mi North - - 0.03 in Rain Light Freezing Rain
10:35 AM -2.2 °F -26.2 °F -7.6 °F 78% 29.96 in 0.2 mi NNW 23.0 mph 34.5 mph 0.06 in Rain Light Freezing Rain
10:55 AM -2.2 °F - -7.6 °F 78% 29.97 in 0.2 mi North - - 0.09 in Rain Light Freezing Rain
11:15 AM -2.2 °F - -9.4 °F 71% 29.98 in 0.2 mi North - - 0.01 in Rain Light Freezing Rain
11:55 AM -2.2 °F - -9.4 °F 71% 30.00 in 0.2 mi North - - 0.04 in Rain Light Freezing Rain
12:15 PM -2.2 °F -26.7 °F -9.4 °F 71% 30.00 in 0.2 mi NNW 24.2 mph 32.2 mph N/A Rain Light Freezing Rain
12:35 PM -2.2 °F - -9.4 °F 71% 30.00 in 0.2 mi North - - 0.01 in Rain Light Freezing Rain
12:55 PM -2.2 °F - -7.6 °F 78% 30.01 in 0.5 mi North - - 0.02 in Rain Light Freezing Rain
1:35 PM -2.2 °F - -7.6 °F 78% 30.02 in 0.5 mi North - - 0.01 in Rain Light Freezing Rain
1:55 PM -2.2 °F -25.2 °F -7.6 °F 78% 30.03 in 1.0 mi NNW 20.7 mph 27.6 mph 0.01 in Rain Light Freezing Rain
2:15 PM -2.2 °F -24.7 °F -7.6 °F 78% 30.04 in 0.5 mi NNW 19.6 mph 25.3 mph N/A Rain Light Freezing Rain
2:35 PM -2.2 °F - -7.6 °F 78% 30.05 in 1.0 mi North - - N/A Rain Light Freezing Rain
2:55 PM -0.4 °F -21.7 °F -7.6 °F 72% 30.06 in 1.8 mi NNW 18.4 mph - N/A Rain Light Freezing Rain
3:15 PM -0.4 °F - -7.6 °F 72% 30.08 in 5.0 mi North - - N/A   Haze
3:35 PM -0.4 °F -22.3 °F -7.6 °F 72% 30.08 in 6.0 mi NNW 19.6 mph 23.0 mph N/A   Haze
3:55 PM -0.4 °F -21.7 °F -7.6 °F 72% 30.09 in 4.0 mi NNW 18.4 mph - N/A   Haze
4:15 PM -0.4 °F -21.2 °F -7.6 °F 72% 30.10 in 4.0 mi NNW 17.3 mph 23.0 mph N/A   Haze
4:35 PM -0.4 °F -20.5 °F -7.6 °F 72% 30.10 in 10.0 mi NNW 16.1 mph 20.7 mph N/A   Clear
4:55 PM -0.4 °F -21.2 °F -7.6 °F 72% 30.10 in 2.5 mi NNW 17.3 mph 21.9 mph N/A Snow Light Snow
5:15 PM -0.4 °F -21.2 °F -7.6 °F 72% 30.10 in 2.5 mi NNW 17.3 mph 26.5 mph N/A   Haze
5:35 PM -0.4 °F -19.9 °F -9.4 °F 66% 30.11 in 8.0 mi NNW 15.0 mph 23.0 mph N/A   Clear
6:15 PM -0.4 °F -19.9 °F -9.4 °F 66% 30.12 in 5.0 mi NNW 15.0 mph - N/A   Haze
6:35 PM -0.4 °F -19.9 °F -9.4 °F 66% 30.13 in 5.0 mi NW 15.0 mph 23.0 mph N/A   Haze
7:15 PM -0.4 °F -18.4 °F -9.4 °F 66% 30.14 in 10.0 mi NW 12.7 mph - N/A   Clear
7:35 PM -0.4 °F -18.4 °F -9.4 °F 66% 30.14 in 10.0 mi NW 12.7 mph - N/A   Clear
7:55 PM -0.4 °F -19.2 °F -9.4 °F 66% 30.14 in 10.0 mi NW 13.8 mph 19.6 mph N/A   Clear
8:15 PM -0.4 °F -19.9 °F -9.4 °F 66% 30.14 in 10.0 mi NW 15.0 mph - N/A   Clear
8:35 PM -2.2 °F -18.9 °F -9.4 °F 71% 30.14 in 10.0 mi WNW 10.4 mph - N/A   Clear
8:55 PM -2.2 °F -18.9 °F -9.4 °F 71% 30.15 in 10.0 mi WNW 10.4 mph - N/A   Clear
9:15 PM -2.2 °F -15.6 °F -11.2 °F 66% 30.15 in 10.0 mi NW 6.9 mph - N/A   Clear
9:35 PM -2.2 °F -14.2 °F -11.2 °F 66% 30.15 in 10.0 mi WNW 5.8 mph - N/A   Clear
9:55 PM -2.2 °F -14.2 °F -11.2 °F 66% 30.15 in 10.0 mi WNW 5.8 mph - N/A   Clear
10:15 PM -4.0 °F -12.4 °F -11.2 °F 71% 30.15 in 10.0 mi West 3.5 mph - N/A   Clear
10:35 PM -5.8 °F - -13.0 °F 71% 30.15 in 10.0 mi Calm Calm - N/A   Clear
10:55 PM -5.8 °F - -13.0 °F 71% 30.16 in 10.0 mi Calm Calm - N/A   Clear
11:15 PM -7.6 °F - -14.8 °F 71% 30.17 in 10.0 mi Calm Calm - N/A   Clear
11:35 PM -11.2 °F -20.6 °F -16.6 °F 77% 30.17 in 10.0 mi SSW 3.5 mph - N/A   Clear
11:55 PM -13.0 °F -22.7 °F -18.4 °F 77% 30.18 in 10.0 mi SSW 3.5 mph - N/A   Clear